Location: Danville Conservation Area
(38.8674°N, 91.5143°W)
Time: 02:20:55
(UTC-06:00)

X-37B - Pass Details

Date: 07 December 2021
Orbit: 331 x 339 km, 45.0° (Epoch: 27 January)

Event Time Altitude Azimuth Distance (km) Brightness Sun altitude
Rises 18:50:52 0° 265° (W) 2,093 5.7 -24.0°
Reaches altitude 10° 18:52:58 10° 274° (W) 1,258 4.2 -24.4°
Enters shadow 18:53:57 18° 285° (WNW) 898 3.1 -24.6°
